Voltar ao catálogo

STARLINK-38009

AtivoComunicaçõesSSO
NORAD 69678·PAYLOAD·🇺🇸 United States

Lançado Jun 25, 2026 de Vandenberg Space Force Base

Loading…

Próximas Passagens (próximas 24 horas)

TLE

AtualizadoSource: CelesTrak SupGP

Época: Sep 14, 2026, 23:03 UTC

1 69678C 26145B   26257.96090278  .00087536  00000+0  27176-2 0  2577
2 69678  97.2849 104.6448 0002168  93.4438 152.2375 15.33389769    12

Acompanhe STARLINK-38009 em tempo real com AllMySat

Download on the App Store